Regional Weather Roundup
Issued by NWS

Home | Current Version | Previous Version | Text Only | Print | Product List | Glossary Off
Versions: 1 2 3 4 5 6 7 8 9 10 11 12 13 14 15 16 17 18 19 20 21 22 23 24 25 26 27 28 29 30 31 32 33 34 35 36 37 38 39 40 41 42 43 44 45 46 47 48 49 50

000
ASUS43 KMPX 230801
RWRMN
WEATHER ROUNDUP FOR MINNESOTA
NATIONAL WEATHER SERVICE TWIN CITIES/CHANHASSEN MN
300 AM CDT MON APR 23 2018


NOTE: "FAIR" INDICATES FEW OR NO CLOUDS BELOW 12,000 FEET WITH NO
SIGNIFICANT WEATHER AND/OR OBSTRUCTIONS TO VISIBILITY. N/A MEANS
CURRENT SKY AND/OR WEATHER CONDITIONS ARE NOT AVAILABLE.

MNZ060>063-068>070-230900-
   Twin Cities Metro

CITY           SKY/WX    TMP DP  RH WIND       PRES   REMARKS
TWIN CITIES    FAIR      44  37  76 CALM      30.24S
ST PAUL        FAIR      40  39  97 CALM      30.25F
BLAINE         FAIR      39  36  87 CALM      30.24S
LAKEVILLE      FAIR      34  34 100 CALM      30.24F
EDEN PRAIRIE   FAIR      42  34  73 CALM      30.23S
SOUTH ST PAUL  FAIR      40  34  78 CALM      30.24S
LAKE ELMO      FAIR      36  34  93 CALM      30.25S
$$
MNZ001>005-007-008-013>017-022>024-027-028-230900-
   Northwest Minnesota

CITY           SKY/WX    TMP DP  RH WIND       PRES   REMARKS
BEMIDJI        FAIR      44  32  64 SW5       30.17S
HALLOCK        FAIR      43  39  87 S8        30.09S
ROSEAU         FAIR      48  41  76 SW13      30.09S
WARROAD        MOCLDY    48  39  71 SW12      30.10S
THIEF RVR FALL CLOUDY    46  38  73 S13       30.13F
CROOKSTON      CLOUDY    46  39  76 S13       30.14S
FOSSTON        CLOUDY    45  34  65 S10       30.16F
DETROIT LAKES  FAIR      43  34  70 S3        30.19F
MOORHEAD       FAIR      41  37  87 S12       30.18S
PARK RAPIDS    FAIR      41  35  79 S5        30.18F
MAHNOMEN       FAIR      41  35  78 S10       30.16F
$$
MNZ006-009>011-018-025>026-230900-
   North Central Minnesota

CITY           SKY/WX    TMP DP  RH WIND       PRES   REMARKS
BAUDETTE       MOCLDY    50  37  61 SW12      30.11S
FLAG ISLAND    FAIR      43  37  81 SW13      30.06F
INTL FALLS     CLOUDY    46  34  62 S3        30.13S
WASKISH        CLOUDY    50  34  53 SW3       30.14F
BIG FORK       FAIR      39  32  75 SW5       30.17S
LONGVILLE      FAIR      43  36  75 CALM      30.19F
GRAND RAPIDS   FAIR      37  32  82 CALM      30.21S
CRANE LAKE     FAIR      37  30  75 S3        30.17F
ORR            FAIR      45  30  57 SW3       30.15S
COOK           FAIR      45  34  65 SW3       30.17F
WALKER         FAIR      44  35  70 SW7       30.17F
$$
MNZ012-019>021-037-230900-
   Northeast Minnesota

CITY           SKY/WX    TMP DP  RH WIND       PRES   REMARKS
DULUTH         FAIR      44  30  57 W6        30.21S
ELY            FAIR      39  27  60 CALM      30.18S
HIBBING        FAIR      28  25  88 CALM      30.19S
EVELETH        FAIR      29  26  87 CALM      30.20F
DULUTH HARBOR  FAIR      34  30  86 S3        30.23F
TWO HARBORS    FAIR      32  27  80 CALM      30.20S
SILVER BAY     FAIR      28  25  86 CALM      30.20S
GRAND MARAIS     N/A     32  25  75 CALM      30.20F
G MARAIS ARPRT FAIR      30  19  64 CALM      30.19F
$$
MNZ029>031-032-039>041-046>048-054>057-064-230900-
   West Central Minnesota

CITY           SKY/WX    TMP DP  RH WIND       PRES   REMARKS
FERGUS FALLS   FAIR      37  34  87 S7        30.19S
WHEATON        CLEAR     41  36  81 S9        30.21F
MORRIS         CLEAR     37  36  93 SE7       30.20F
ALEXANDRIA     FAIR      43  35  73 S9        30.21F
ELBOW LAKE     FAIR      36  34  90 E8        30.20F
WADENA         FAIR      36  34  93 CALM      30.20S
GLENWOOD       FAIR      39  36  87 S3        30.22F
APPLETON       CLEAR     43  36  75 CALM      30.21F
BENSON         CLEAR     34  32  93 S3        30.23F
ORTONVILLE     CLEAR     36  34  93 S5        30.21S
MADISON        CLEAR     41  37  87 CALM      30.22S
WILLMAR        FAIR      36  36 100 CALM      30.24S
$$
MNZ033>034-036-042>043-049>051-058-059-230900-
   Central Minnesota

CITY           SKY/WX    TMP DP  RH WIND       PRES   REMARKS
ST CLOUD       FAIR      35  34  96 CALM      30.22F
SAUK CENTRE    FAIR      33  32  96 CALM      30.22F
PAYNESVILLE    FAIR      35  35 100 CALM      30.23S FOG
AITKIN         FAIR      30  28  93 CALM      30.20F
PINE RIVER     FAIR      30  28  93 CALM      30.23S
BRAINERD       FAIR      32  27  81 SE3       30.21F
STAPLES        FAIR      32  32 100 S5        30.20F WCI  27
LONG PRAIRIE   FAIR      34  32  93 CALM      30.23S
LITTLE FALLS   FAIR      34  32  93 CALM      30.23S
LITCHFIELD     FAIR      37  37 100 CALM      30.23F FOG
BUFFALO        FAIR      36  33  88 CALM      30.24F
MAPLE LAKE     FAIR      34  33  96 CALM      30.24F
HUTCHINSON       N/A     37  37 100 CALM      30.24F FOG
$$
MNZ037-044-045-052-053-230900-
   East Central Minnesota

CITY           SKY/WX    TMP DP  RH WIND       PRES   REMARKS
PRINCETON      FAIR      34  30  86 CALM      30.23F
MORA           FAIR      32  30  93 CALM      30.24F
CAMBRIDGE      FAIR      36  27  69 CALM      30.23F
RUSH CITY      FAIR      35  32  87 CALM      30.23F
MOOSE LAKE     FAIR      32  28  86 CALM      30.21S
HINCKLEY       FAIR      32  30  93 CALM      30.23F
CLOQUET        FAIR      36  27  69 SW3       30.21F
MCGREGOR       FAIR      32  28  86 CALM      30.22S
$$
MNZ071>073-080-081-089-090-097-098-230900-
   Southwest Minnesota

CITY           SKY/WX    TMP DP  RH WIND       PRES   REMARKS
MONTEVIDEO     CLEAR     39  36  87 CALM      30.22S
GRANITE FALLS  CLEAR     40  37  90 SE6       30.23F
CANBY          CLEAR     39  35  84 CALM      30.22S
MARSHALL       CLEAR     38  32  79 S5        30.22F
REDWOOD FALLS  CLEAR     40  38  93 CALM      30.22F
OLIVIA         CLEAR     37  36  93 CALM      30.22F FOG
PIPESTONE      CLEAR    N/A N/A N/A SE7       30.20F
WINDOM         CLEAR     37  23  56 CALM      30.22F
WORTHINGTON    PTCLDY    36  34  92 CALM      30.22F
JACKSON        CLEAR     36  32  87 CALM      30.22F
TRACY          CLEAR     38  35  87 CALM      30.21F
SLAYTON        CLEAR     35  32  87 CALM      30.23S
$$
MNZ065>067-074>077-082>085-091>093-230900-
   South Central Minnesota

CITY           SKY/WX    TMP DP  RH WIND       PRES   REMARKS
MANKATO        FAIR      44  37  76 E5        30.23F
NEW ULM        CLEAR     39  36  87 CALM      30.23S
ST JAMES       CLEAR     37  36  93 CALM      30.24S
FAIRMONT       CLEAR     35  33  92 N5        30.23F WCI  31
GLENCOE        FAIR      39  39 100 CALM      30.22F
OWATONNA       FAIR      36  34  93 CALM      30.24S
WASECA         FAIR      36  32  87 NE5       30.25R
ALBERT LEA     FAIR      39  34  81 CALM      30.23S
$$
MNZ078>079-086>088-094>096-230900-
   Southeast Minnesota

CITY           SKY/WX    TMP DP  RH WIND       PRES   REMARKS
ROCHESTER      FAIR      44  28  53 E7        30.24S
RED WING       FAIR      34  28  80 CALM      30.24S
STANTON        FAIR      34  32  92 SW3       30.23S
DODGE CENTER   FAIR      39  30  70 E5        30.24S
WINONA         FAIR      36  32  87 CALM      30.24F
AUSTIN         FAIR      37  32  81 CALM      30.23S
PRESTON        FAIR      43  27  52 E3        30.25S
$$
ABBREVIATIONS USED IN REMARKS
   TC - TEMPERATURES IN CELSIUS
  WCI - WIND CHILL INDEX
   HX - HEAT INDEX
  VSB - VISIBILITY
$$



USA.gov is the U.S. government's official web portal to all federal, state and local government web resources and services.